Flag for U.S.A. Weather past 2 weeks in Newport News, Virginia, U.S.A.

Now
88 °F

Sunny.


Feels Like: 87 °F
Forecast: 66 / 83 °F
Wind: No wind

Location: Newport News / Williamsburg International Airport

Current Time: Aug 27, 2014 at 6:06:39 PM

Latest Report: Aug 27, 2014 at 4:54 PM


Visibility: 10 mi

Pressure: 29.95 "Hg

Humidity: 36%

Dew point: 58 °F

Location of Newport NewsLocation

Historic Weather in Newport News — Graph

°F

Newport News temperature yesterday

Maximum temperature yesterday: 84 °F (at 12:54 PM)
Minimum temperature yesterday: 63 °F (at 4:54 AM)
Average temperature yesterday: 74 °F

Past Weeks' High & Low Weather Summary

 TemperatureHumidityPressure
High91 °F (Aug 17, 2:54 PM)94% (Aug 27, 4:58 AM)30.15 "Hg (Aug 27, 4:58 AM)
Low63 °F (Aug 26, 4:54 AM)32% (Aug 14, 1:54 PM)29.74 "Hg (Aug 13, 2:54 AM)
Average79 °F67%29.96 "Hg
* Reported Aug 12 3:54 PM — Aug 27 3:54 PM, Newport News, Weather by CustomWeather, © 2014

Note: Actual official high and low records may vary slightly from our data, if they occured in-between our weather recording intervals... More about our weather records

Advertising

Newport News weather history for previous 24 hours

 ConditionsComfort  
Time TempWeatherWind HumidityBarometerVisibility
3:54 PM
Aug 27
88 °FSunny.8 mph38%29.96 "Hg10 mi
2:54 PM88 °FSunny.7 mph38%29.98 "Hg10 mi
1:54 PM85 °FSunny.8 mph51%30.01 "Hg10 mi
12:54 PM85 °FSunny.7 mph55%30.03 "Hg10 mi
11:54 AM83 °FPassing clouds.7 mph59%30.05 "Hg10 mi
10:54 AM83 °FScattered clouds.9 mph59%30.06 "Hg10 mi
9:54 AM81 °FPassing clouds.9 mph65%30.06 "Hg10 mi
8:54 AM77 °FSunny.8 mph77%30.06 "Hg10 mi
7:54 AM72 °FSunny.5 mph84%30.06 "Hg10 mi
6:54 AM66 °FClear.6 mph90%30.05 "Hg10 mi
5:54 AM64 °FPassing clouds.No wind90%30.04 "Hg10 mi
4:58 AM64 °FFog.5 mph94%30.04 "Hg3 mi
3:54 AM63 °FClear.No wind90%30.03 "Hg10 mi
2:54 AM63 °FFog.No wind87%30.05 "Hg6 mi
1:54 AM65 °FPassing clouds.No wind87%30.05 "Hg10 mi
1:00 AM64 °FFog.No wind87%30.07 "Hg1 mi
11:54 PM
Aug 26
66 °FClear.3 mph87%30.08 "Hg10 mi
10:54 PM67 °FClear.3 mph85%30.09 "Hg10 mi
9:54 PM68 °FClear.5 mph82%30.10 "Hg10 mi
8:54 PM71 °FClear.3 mph73%30.11 "Hg10 mi
7:54 PM74 °FLight rain. Sunny.7 mph64%30.10 "Hg10 mi
6:54 PM80 °FSunny.10 mph58%30.09 "Hg10 mi
Weather by CustomWeather, © 2014

See weather overviewHow to use our weather pages